Clemson, SC

6:37 AM EST on December 13, 2017 (GMT -0500)
Oconee County Regional

Weather History for KCEU - April, 2014

Change the Weather History Date:

Monday, April 14, 2014

  Actual Average Record
Temperature  
Mean Temperature 66 °F -  
Max Temperature 70 °F 72 °F 88 °F (1941)
Min Temperature 62 °F 48 °F 27 °F (1950)
Cooling Degree Days 1    
Growing Degree Days 16 (Base 50)    
Moisture  
Dew Point 61 °F    
Average Humidity 83    
Maximum Humidity 90    
Minimum Humidity 55    
Precipitation  
Precipitation 0.23 in - - ()
Sea Level Pressure  
Sea Level Pressure 29.92 in    
Wind  
Wind Speed 2 mph (South)    
Max Wind Speed 8 mph    
Max Gust Speed -    
Visibility 6 miles    
Events Fog , Rain    
Averages and records for this station are not official NWS values.
T = Trace of Precipitation, MM = Missing Value Source: NWS Daily Summary

Daily Weather History Graph

Daily Weather History Graph

Search for Another Location

Airport or City:

Trip Planner

Search our weather history database for the weather conditions in past years. The results will help you decide how hot, cold, wet, or windy it might be!

Date:

Astronomy

Apr. 14, 2014 Rise Set
Actual Time 7:01 AM EDT 8:02 PM EDT
Civil Twilight 6:35 AM EDT 8:28 PM EDT
Nautical Twilight 6:04 AM EDT 8:59 PM EDT
Astronomical Twilight 5:32 AM EDT 9:31 PM EDT
Moon 7:41 PM EDT (4/14) 6:30 AM EDT (4/14)
Length of Visible Light 13h 53m
Length of Day
13h 01m
Full, 100% of the Moon is Illuminated
Apr 14
Full
Apr 15
Full
Apr 22
Last Quarter
Apr 29
New
May 6
First Quarter

Hourly Weather History & Observations

Time (EDT) Temp. Dew Point Humidity Pressure Visibility Wind Dir Wind Speed Gust Speed Precip Events Conditions
12:54 AM 70.0 °F 53.1 °F 55% 30.03 in 10.0 mi SSE 8.1 mph - N/A   Clear
1:54 AM 68.0 °F 53.1 °F 59% 30.03 in 10.0 mi Variable 5.8 mph - N/A   Clear
2:54 AM 66.9 °F 53.1 °F 61% 30.03 in 10.0 mi SSW 6.9 mph - N/A   Scattered Clouds
3:54 AM 66.0 °F 54.0 °F 65% 30.01 in 10.0 mi Calm Calm - N/A   Mostly Cloudy
4:54 AM 64.9 °F 55.0 °F 70% 29.99 in 10.0 mi Calm Calm - N/A   Partly Cloudy
5:54 AM 63.0 °F 55.0 °F 75% 29.99 in 10.0 mi Calm Calm - N/A   Scattered Clouds
6:41 AM 62.1 °F 55.0 °F 78% 30.01 in 10.0 mi Calm Calm - N/A   Mostly Cloudy
6:54 AM 62.1 °F 55.9 °F 80% 29.99 in 10.0 mi Calm Calm - N/A   Overcast
7:54 AM 63.0 °F 55.9 °F 78% 30.00 in 10.0 mi Calm Calm - N/A   Overcast
8:54 AM 64.0 °F 57.0 °F 78% 30.01 in 10.0 mi Calm Calm - N/A   Overcast
9:26 AM 64.0 °F 57.0 °F 78% 30.03 in 10.0 mi Calm Calm - N/A   Overcast
9:36 AM 64.9 °F 57.9 °F 78% 30.03 in 10.0 mi Variable 3.5 mph - N/A   Overcast
9:54 AM 64.9 °F 57.9 °F 78% 30.01 in 10.0 mi Variable 3.5 mph - N/A   Overcast
10:01 AM 64.9 °F 57.9 °F 78% 30.03 in 10.0 mi Variable 3.5 mph - N/A   Overcast
10:54 AM 66.0 °F 59.0 °F 78% 30.01 in 10.0 mi Variable 3.5 mph - N/A   Overcast
11:17 AM 66.9 °F 59.0 °F 76% 30.03 in 10.0 mi Calm Calm - 0.00 in Rain Light Rain
11:54 AM 68.0 °F 60.1 °F 76% 30.00 in 10.0 mi Variable 3.5 mph - 0.00 in   Overcast
12:54 PM 69.1 °F 61.0 °F 75% 29.97 in 10.0 mi SE 3.5 mph - N/A   Overcast
1:54 PM 68.0 °F 62.1 °F 81% 29.95 in 5.0 mi Calm Calm - 0.01 in Rain Light Rain
2:16 PM 68.0 °F 63.0 °F 84% 29.97 in 2.5 mi WNW 3.5 mph - 0.03 in Rain Light Rain
2:25 PM 68.0 °F 64.0 °F 87% 29.96 in 9.0 mi Calm Calm - 0.03 in   Overcast
2:34 PM 68.0 °F 64.0 °F 87% 29.96 in 8.0 mi Calm Calm - 0.03 in   Mostly Cloudy
2:54 PM 69.1 °F 64.0 °F 84% 29.93 in 10.0 mi Calm Calm - 0.03 in   Mostly Cloudy
3:54 PM 70.0 °F 64.9 °F 84% 29.91 in 6.0 mi Calm Calm - 0.01 in Rain Light Rain
4:08 PM 69.1 °F 64.9 °F 87% 29.92 in 5.0 mi NNE 3.5 mph - 0.01 in Rain Light Rain
4:18 PM 68.0 °F 64.9 °F 90% 29.91 in 2.5 mi ENE 3.5 mph - 0.02 in Rain Rain
4:41 PM 68.0 °F 64.0 °F 87% 29.92 in 1.8 mi Calm Calm - 0.07 in Rain Rain
4:44 PM 68.0 °F 64.0 °F 87% 29.91 in 2.0 mi South 3.5 mph - 0.08 in Rain Rain
4:54 PM 68.0 °F 63.0 °F 84% 29.89 in 3.0 mi WSW 6.9 mph - 0.09 in Rain Light Rain
5:54 PM 66.9 °F 63.0 °F 87% 29.86 in 10.0 mi Calm Calm - 0.01 in   Overcast
6:54 PM 66.9 °F 63.0 °F 87% 29.86 in 5.0 mi Calm Calm - 0.00 in Rain Light Rain
7:07 PM 66.9 °F 63.0 °F 87% 29.87 in 2.5 mi West 3.5 mph - 0.01 in Rain Light Rain
7:15 PM 66.0 °F 63.0 °F 90% 29.87 in 2.0 mi Calm Calm - 0.02 in Rain Light Rain
7:24 PM 66.9 °F 63.0 °F 87% 29.86 in 2.5 mi Calm Calm - 0.02 in Rain Light Rain
7:34 PM 66.9 °F 63.0 °F 87% 29.86 in 3.0 mi Calm Calm - 0.03 in Rain Light Rain
7:54 PM 66.9 °F 63.0 °F 87% 29.83 in 3.0 mi Calm Calm - 0.03 in Rain Light Rain
8:03 PM 66.0 °F 63.0 °F 90% 29.86 in 5.0 mi Calm Calm - 0.00 in Rain Light Rain
8:23 PM 66.0 °F 63.0 °F 90% 29.85 in 2.5 mi Calm Calm - 0.00 in   Overcast
8:47 PM 66.0 °F 63.0 °F 90% 29.85 in 1.5 mi Calm Calm - 0.00 in   Overcast
8:51 PM 66.2 °F 62.6 °F 88% 29.84 in 1.5 mi ENE 3.5 mph - 0.00 in   Overcast
8:54 PM 66.0 °F 63.0 °F 90% 29.83 in 1.8 mi Calm Calm - 0.01 in Rain Light Rain
9:02 PM 66.0 °F 63.0 °F 90% 29.85 in 2.0 mi Calm Calm - 0.00 in Rain Light Rain
9:22 PM 66.0 °F 63.0 °F 90% 29.85 in 4.0 mi Calm Calm - 0.00 in   Overcast
9:40 PM 66.0 °F 63.0 °F 90% 29.85 in 4.0 mi Calm Calm - 0.01 in Rain Light Rain
9:54 PM 66.0 °F 63.0 °F 90% 29.82 in 3.0 mi Calm Calm - 0.02 in Rain Light Rain
10:07 PM 66.0 °F 63.0 °F 90% 29.84 in 3.0 mi Calm Calm - 0.00 in   Overcast
10:28 PM 66.0 °F 63.0 °F 90% 29.84 in 1.8 mi Calm Calm - 0.00 in   Overcast
10:41 PM 66.0 °F 63.0 °F 90% 29.84 in 0.5 mi Calm Calm - 0.00 in Fog Fog
10:54 PM 66.0 °F 63.0 °F 90% 29.81 in 0.5 mi Calm Calm - 0.00 in Fog Fog
11:10 PM 66.0 °F 63.0 °F 90% 29.83 in 1.5 mi Calm Calm - N/A   Overcast
11:16 PM 66.0 °F 63.0 °F 90% 29.83 in 3.0 mi Calm Calm - N/A   Overcast
11:54 PM 66.0 °F 63.0 °F 90% 29.80 in 4.0 mi Calm Calm - 0.02 in   Overcast